User: anonymous   Login
Location: *
(52.2090°N, 4.1550°W)
Time: 15:21:15
(UTC+00:00)
Language:

ATLAS 3B R/B - Orbit

View from above orbital plane
View from above orbital plane
View from above satellite
View from above satellite

Ground track
Ground track

The orbit data is extracted from the following two-line orbital elements,

1 28538U 05004B   19257.46110391 0.00000000  00000-0  00000-0 0    07
2 28538  63.7345  31.3401 0103478  77.1154 282.8846 13.43121634    02
Epoch (UTC): 14 September 2019 11:03:59
Eccentricity: 0.0103478
inclination: 63.7345°
perigee height: 1020 km
apogee height: 1175 km
right ascension of ascending node: 31.3401°
argument of perigee: 77.1154°
revolutions per day: 13.43121634
mean anomaly at epoch: 282.8846°
orbit number at epoch: 0

The dashed part of the orbit path shows where the satellite is in the earth's shadow,  

DLR